Monroe, WI

9:10 AM CST on December 06, 2019 (GMT -0600)
Monroe Municipal

Weather History for KEFT - August, 2019

Change the Weather History Date:

Thursday, August 8, 2019

  Actual Average Record
Temperature  
Mean Temperature 71 °F -  
Max Temperature 78 °F 76 °F 89 °F (2005)
Min Temperature 65 °F 56 °F 21 °F (1998)
Cooling Degree Days 6    
Growing Degree Days 21 (Base 50)    
Moisture  
Dew Point 57 °F    
Average Humidity 63    
Maximum Humidity 93    
Minimum Humidity 34    
Precipitation  
Precipitation 0.00 in - - ()
Sea Level Pressure  
Sea Level Pressure 29.88 in    
Wind  
Wind Speed 9 mph (WNW)    
Max Wind Speed 15 mph    
Max Gust Speed 22 mph    
Visibility 10 miles    
Events      
Averages and records for this station are not official NWS values.
T = Trace of Precipitation, MM = Missing Value Source: NWS Daily Summary

Daily Weather History Graph

Daily Weather History Graph

Search for Another Location

Airport or City:

Astronomy

Aug. 08, 2019 Rise Set
Actual Time 5:57 AM CDT 8:09 PM CDT
Civil Twilight 5:26 AM CDT 8:41 PM CDT
Nautical Twilight 4:47 AM CDT 9:19 PM CDT
Astronomical Twilight 4:05 AM CDT 10:01 PM CDT
Moon 2:46 PM CDT (8/8) 12:20 AM CDT (8/8)
Length of Visible Light 15h 14m
Length of Day
14h 12m
First Quarter, 60% of the Moon is Illuminated
Aug 8
First Quarter
Aug 15
Full
Aug 23
Last Quarter
Aug 30
New
Sep 5
First Quarter

Hourly Weather History & Observations

Time (CDT) Temp. Dew Point Humidity Pressure Visibility Wind Dir Wind Speed Gust Speed Precip Events Conditions
12:15 AM 72.5 °F 64.8 °F 77% 29.82 in 10.0 mi West 13.8 mph - N/A   Clear
12:35 AM 72.0 °F 65.1 °F 79% 29.83 in 10.0 mi West 10.4 mph - N/A   Mostly Cloudy
12:55 AM 71.6 °F 65.3 °F 80% 29.83 in 10.0 mi West 10.4 mph - N/A   Scattered Clouds
1:15 AM 71.6 °F 65.5 °F 81% 29.83 in 10.0 mi West 10.4 mph - N/A   Clear
1:35 AM 71.6 °F 65.7 °F 81% 29.83 in 10.0 mi North 3.5 mph - N/A   Clear
1:55 AM 71.1 °F 65.8 °F 84% 29.83 in 10.0 mi NW 3.5 mph - N/A   Scattered Clouds
2:15 AM 70.2 °F 66.0 °F 87% 29.83 in 10.0 mi WNW 4.6 mph - N/A   Scattered Clouds
2:35 AM 70.0 °F 66.4 °F 88% 29.83 in 10.0 mi West 6.9 mph - N/A   Clear
2:55 AM 70.2 °F 66.4 °F 88% 29.83 in 10.0 mi West 5.8 mph - N/A   Scattered Clouds
3:15 AM 69.8 °F 66.6 °F 89% 29.83 in 10.0 mi WNW 8.1 mph - N/A   Clear
3:35 AM 68.9 °F 66.4 °F 92% 29.83 in 10.0 mi WNW 5.8 mph - N/A   Clear
3:55 AM 69.3 °F 66.4 °F 91% 29.83 in 10.0 mi NNW 5.8 mph - N/A   Clear
4:15 AM 68.7 °F 66.4 °F 92% 29.82 in 10.0 mi WNW 6.9 mph - N/A   Clear
4:35 AM 68.9 °F 66.2 °F 91% 29.82 in 10.0 mi WNW 6.9 mph - N/A   Clear
4:55 AM 68.0 °F 65.7 °F 92% 29.82 in 10.0 mi NW 4.6 mph - N/A   Clear
5:15 AM 68.0 °F 65.8 °F 93% 29.82 in 10.0 mi NW 5.8 mph - N/A   Clear
5:35 AM 68.2 °F 65.8 °F 92% 29.82 in 10.0 mi WNW 8.1 mph - N/A   Clear
5:55 AM 67.6 °F 65.5 °F 93% 29.83 in 10.0 mi WNW 6.9 mph - N/A   Clear
6:15 AM 67.5 °F 65.3 °F 93% 29.85 in 10.0 mi West 8.1 mph - N/A   Clear
6:35 AM 67.3 °F 65.3 °F 93% 29.85 in 10.0 mi WNW 9.2 mph - N/A   Clear
6:55 AM 68.0 °F 65.5 °F 92% 29.86 in 10.0 mi WNW 5.8 mph - N/A   Clear
7:15 AM 68.5 °F 65.5 °F 90% 29.86 in 10.0 mi WNW 4.6 mph - N/A   Clear
7:35 AM 68.9 °F 64.8 °F 87% 29.87 in 10.0 mi WNW 9.2 mph - N/A   Clear
7:55 AM 69.4 °F 63.7 °F 82% 29.88 in 10.0 mi NW 8.1 mph - N/A   Clear
8:35 AM 70.9 °F 60.8 °F 70% 29.89 in 10.0 mi NW 12.7 mph 17.3 mph N/A   Clear
8:55 AM 71.6 °F 61.0 °F 69% 29.88 in 10.0 mi NNW 5.8 mph 17.3 mph N/A   Clear
9:15 AM 72.1 °F 61.0 °F 68% 29.88 in 10.0 mi NNW 8.1 mph - N/A   Clear
9:35 AM 72.7 °F 61.0 °F 67% 29.89 in 10.0 mi NW 10.4 mph - N/A   Clear
9:55 AM 73.2 °F 61.5 °F 67% 29.88 in 10.0 mi NW 10.4 mph - N/A   Clear
10:15 AM 73.9 °F 61.0 °F 64% 29.89 in 10.0 mi NW 6.9 mph - N/A   Clear
10:35 AM 74.3 °F 60.1 °F 61% 29.90 in 10.0 mi NW 8.1 mph - N/A   Clear
10:55 AM 75.2 °F 58.8 °F 57% 29.90 in 10.0 mi WNW 11.5 mph - N/A   Clear
11:15 AM 75.7 °F 55.2 °F 49% 29.91 in 10.0 mi WNW 11.5 mph - N/A   Clear
11:35 AM 76.1 °F 55.4 °F 49% 29.91 in 10.0 mi WNW 12.7 mph 17.3 mph N/A   Clear
11:55 AM 76.1 °F 55.2 °F 48% 29.91 in 10.0 mi WNW 13.8 mph 17.3 mph N/A   Clear
12:15 PM 76.1 °F 53.2 °F 45% 29.91 in 10.0 mi WNW 11.5 mph 18.4 mph N/A   Scattered Clouds
12:35 PM 76.5 °F 52.3 °F 43% 29.91 in 10.0 mi WNW 10.4 mph 19.6 mph N/A   Clear
12:55 PM 76.3 °F 54.9 °F 47% 29.91 in 10.0 mi NW 13.8 mph - N/A   Clear
1:15 PM 77.0 °F 54.1 °F 45% 29.91 in 10.0 mi NW 8.1 mph 16.1 mph N/A   Clear
1:35 PM 76.5 °F 55.0 °F 47% 29.91 in 10.0 mi NNW 9.2 mph - N/A   Clear
1:55 PM 76.6 °F 52.7 °F 43% 29.91 in 10.0 mi WNW 13.8 mph 20.7 mph N/A   Clear
2:15 PM 77.2 °F 50.0 °F 38% 29.92 in 10.0 mi WNW 13.8 mph 20.7 mph N/A   Clear
2:35 PM 77.4 °F 53.1 °F 43% 29.91 in 10.0 mi West 12.7 mph - N/A   Clear
2:55 PM 77.7 °F 50.5 °F 38% 29.91 in 10.0 mi NW 9.2 mph - N/A   Clear
3:15 PM 77.5 °F 51.3 °F 40% 29.92 in 10.0 mi West 15.0 mph 21.9 mph N/A   Clear
3:35 PM 77.9 °F 51.3 °F 39% 29.91 in 10.0 mi WNW 10.4 mph - N/A   Clear
3:55 PM 77.5 °F 52.7 °F 42% 29.91 in 10.0 mi West 15.0 mph - N/A   Clear
4:15 PM 77.4 °F 46.6 °F 34% 29.90 in 10.0 mi NW 15.0 mph 19.6 mph N/A   Clear
4:35 PM 77.4 °F 50.4 °F 39% 29.90 in 10.0 mi WNW 9.2 mph 18.4 mph N/A   Clear
4:55 PM 77.4 °F 52.0 °F 41% 29.90 in 10.0 mi NW 9.2 mph 16.1 mph N/A   Clear
5:15 PM 77.0 °F 50.9 °F 40% 29.89 in 10.0 mi NW 15.0 mph 19.6 mph N/A   Clear
5:35 PM 76.3 °F 49.5 °F 39% 29.89 in 10.0 mi NW 11.5 mph 18.4 mph N/A   Clear
5:55 PM 76.1 °F 49.3 °F 39% 29.89 in 10.0 mi NNW 11.5 mph 17.3 mph N/A   Clear
6:15 PM 75.4 °F 48.6 °F 39% 29.90 in 10.0 mi NW 9.2 mph 17.3 mph N/A   Clear
6:35 PM 74.7 °F 51.1 °F 44% 29.90 in 10.0 mi NNW 5.8 mph - N/A   Clear
6:55 PM 73.4 °F 49.6 °F 43% 29.90 in 10.0 mi NNW 6.9 mph - N/A   Clear
7:15 PM 72.0 °F 51.1 °F 48% 29.90 in 10.0 mi NW 8.1 mph - N/A   Clear
7:35 PM 70.7 °F 51.3 °F 50% 29.90 in 10.0 mi NW 6.9 mph - N/A   Clear
7:55 PM 69.6 °F 51.8 °F 53% 29.91 in 10.0 mi NW 4.6 mph - N/A   Clear
8:15 PM 68.7 °F 52.0 °F 55% 29.91 in 10.0 mi WNW 5.8 mph - N/A   Clear
8:35 PM 68.4 °F 52.0 °F 56% 29.92 in 10.0 mi WNW 6.9 mph - N/A   Clear
8:55 PM 68.0 °F 51.8 °F 56% 29.92 in 10.0 mi WNW 9.2 mph - N/A   Clear
9:15 PM 67.5 °F 51.8 °F 57% 29.93 in 10.0 mi WNW 6.9 mph - N/A   Clear
9:35 PM 67.1 °F 51.8 °F 58% 29.93 in 10.0 mi WNW 6.9 mph - N/A   Clear
9:55 PM 66.6 °F 51.8 °F 59% 29.93 in 10.0 mi WNW 8.1 mph - N/A   Clear
10:15 PM 65.8 °F 51.8 °F 60% 29.93 in 10.0 mi NW 8.1 mph - N/A   Clear
10:35 PM 66.2 °F 51.8 °F 60% 29.94 in 10.0 mi WNW 6.9 mph - N/A   Clear
10:55 PM 66.0 °F 51.4 °F 59% 29.94 in 10.0 mi WNW 8.1 mph - N/A   Clear
11:15 PM 65.8 °F 51.8 °F 60% 29.94 in 10.0 mi WNW 8.1 mph - N/A   Clear
11:35 PM 65.3 °F 51.8 °F 62% 29.95 in 10.0 mi WNW 9.2 mph - N/A   Clear
11:55 PM 65.3 °F 51.8 °F 62% 29.95 in 10.0 mi WNW 8.1 mph - N/A   Clear